INTELSAT 20 (IS-20)

Last updated on Tue Oct 21 2025 00:02:52 GMT+0000 (Coordinated Universal Time)

1 38740U 12043A 25293.42253743 -.00000022 00000+0 00000+0 0 9996 2 38740 0.0234 135.7786 0001926 50.8583 63.1141 1.00273422 48343
UTC large
Height (km)
Speed (km/s)
/
Latitude / Longitude
Inclination (degrees)
Orbital Period (minutes)
Azimuth
Elevation
Range (km)
Doppler Factor

Next 0 passes for location: London (51.5072 / 0.1276)

Sorry there are no passes over London.